Regional Weather Roundup
Issued by NWS

Home | Current Version | Previous Version | Text Only | Print | Product List | Glossary Off
Versions: 1 2 3 4 5 6 7 8 9 10 11 12 13 14 15 16 17 18 19 20 21 22 23 24 25 26 27 28 29 30 31 32 33 34 35 36 37 38 39 40 41 42 43 44 45 46 47 48 49 50

000
ASUS43 KMKX 191759
RWRWI

WISCONSIN REGIONAL WEATHER ROUNDUP
NATIONAL WEATHER SERVICE MILWAUKEE/SULLIVAN WI
100 PM CDT THU APR 19 2018

NOTE: "FAIR" INDICATES FEW OR NO CLOUDS BELOW 12,000 FEET WITH NO
SIGNIFICANT WEATHER AND/OR OBSTRUCTIONS TO VISIBILITY.

WIZ001-002-006>008-014>016-023>028-191900-
NORTHWEST WISCONSIN

CITY           SKY/WX    TMP DP  RH WIND       PRES   REMARKS
SUPERIOR ARPT  FAIR      53  18  25 W7        30.43S
6HR MIN TEMP:  23; 6HR MAX TEMP:  53;

ASHLAND        FAIR      47  12  24 CALM      30.42S
6HR MIN TEMP:  16; 6HR MAX TEMP:  49;

HAYWARD        FAIR      50  15  24 W3        30.42S
6HR MIN TEMP:  15; 6HR MAX TEMP:  50;

SIREN          FAIR      50  14  24 W10       30.44S
CUMBERLAND     FAIR      43  16  33 NW8       30.44S
RICE LAKE      FAIR      46  15  29 W8        30.46R
CHETEK         FAIR      46  19  33 NW6       30.45R
LADYSMITH      FAIR      48  17  28 NW9       30.42S
6HR MIN TEMP:  20; 6HR MAX TEMP:  48;

EAU CLAIRE     NOT AVBL
MENOMONIE      FAIR      46  18  32 W12       30.46S
6HR MIN TEMP:  28; 6HR MAX TEMP:  46;

NEW RICHMOND   FAIR      44  15  30 N7        30.47S
OSCEOLA        FAIR      47  14  26 N3        30.50S
$$

WIZ003>005-009-010-017-018-191900-
NORTH CENTRAL WISCONSIN

CITY           SKY/WX    TMP DP  RH WIND       PRES   REMARKS
MANITOWISH WTR FAIR      46  11  23 N5        30.36S
ARBOR VITAE    FAIR      49  14  24 N6        30.35S
WOODRUFF       FAIR      49  14  24 N6        30.35S
RHINELANDER    FAIR      49   8  19 N6        30.35S
6HR MIN TEMP:  27; 6HR MAX TEMP:  49;

EAGLE RIVER    FAIR      47   5  17 N9        30.34S
6HR MIN TEMP:  19; 6HR MAX TEMP:  47;

LAND O LAKES   FAIR      46   8  20 N8        30.37R
6HR MIN TEMP:  25; 6HR MAX TEMP:  46;

PHILLIPS       FAIR      47  15  27 N9        30.37S
6HR MIN TEMP:  14; 6HR MAX TEMP:  47;

TOMAHAWK       FAIR      48  11  22 N6        30.36S
MEDFORD        FAIR      45  14  29 N3        30.37S
MERRILL          N/A     49  13  23 N9        30.37R
6HR MIN TEMP:  20; 6HR MAX TEMP:  49;

$$

WIZ029-030-035-036-043>047-191900-
CENTRAL WISCONSIN

CITY           SKY/WX    TMP DP  RH WIND       PRES   REMARKS
WAUSAU         FAIR      48  14  25 NW9       30.35S
6HR MIN TEMP:  25; 6HR MAX TEMP:  48;

MOSINEE        SUNNY     46  12  25 N8        30.38R
MARSHFIELD     FAIR      41  22  46 W10       30.39R
6HR MIN TEMP:  22; 6HR MAX TEMP:  41;

STEVENS POINT  FAIR      46  15  28 W5        30.37R
WAUPACA        FAIR      54  11  18 W9        30.36S
6HR MIN TEMP:  29; 6HR MAX TEMP:  54;

WAUTOMA        FAIR      45  20  36 W9        30.38S
6HR MIN TEMP:  27; 6HR MAX TEMP:  45;

WISC RAPIDS    FAIR      46  18  32 N9        30.40R
6HR MIN TEMP:  24; 6HR MAX TEMP:  46;

CAMP DOUGLAS   MOSUNNY   43  28  56 W8        30.41R
$$

WIZ011>013-019>022-031-037>040-048>050-191900-
NORTHEAST WISCONSIN

CITY           SKY/WX    TMP DP  RH WIND       PRES   REMARKS
ANTIGO         FAIR      46  16  30 NW8       30.34S
SHAWANO        FAIR      54  13  19 NE6       30.33R
6HR MIN TEMP:  32; 6HR MAX TEMP:  54;

OCONTO         FAIR      48  14  25 N9        30.32S
STURGEON BAY   FAIR      44  17  33 N8        30.33R
6HR MIN TEMP:  31; 6HR MAX TEMP:  45;

GREEN BAY      FAIR      47  20  34 NW9       30.34S
6HR MIN TEMP:  31; 6HR MAX TEMP:  48;

MANITOWOC      FAIR      43  19  38 NW8       30.35R
6HR MIN TEMP:  30; 6HR MAX TEMP:  43;

APPLETON       SUNNY     46  12  25 W6        30.34R
CLINTONVILLE   FAIR      51   8  17 N5        30.34S
6HR MIN TEMP:  24; 6HR MAX TEMP:  51;

OSHKOSH        FAIR      43  22  43 W7        30.36R
6HR MIN TEMP:  28; 6HR MAX TEMP:  43;

$$

WIZ032>034-041-042-053>061-191900-
SOUTHWEST WISCONSIN

CITY           SKY/WX    TMP DP  RH WIND       PRES   REMARKS
LA CROSSE      FAIR      44  26  49 NW8       30.46S
6HR MIN TEMP:  23; 6HR MAX TEMP:  44;

SPARTA         FAIR      43  28  55 W8        30.44S
VIROQUA        FAIR      40  28  62 NW8       30.43R WCI  35
BOSCOBEL       FAIR      46  23  40 NW6       30.44S
6HR MIN TEMP:  20; 6HR MAX TEMP:  46;

PRAIRIE DU CHI FAIR      43  24  47 NW6       30.45S
PLATTEVILLE    FAIR      42  29  58 NW3       30.42S
$$

WIZ056-057-062-063-064-067-068-191900-
SOUTH CENTRAL WISCONSIN

CITY           SKY/WX    TMP DP  RH WIND       PRES   REMARKS
REEDSBURG      FAIR      43  26  51 W8        30.39F
6HR MIN TEMP:  19; 6HR MAX TEMP:  43;

BARABOO/DELLS  FAIR      44  24  46 W5        30.39S
LONE ROCK      FAIR      43  26  51 W7        30.42S
6HR MIN TEMP:  19; 6HR MAX TEMP:  43;

MINERAL POINT  FAIR      43  27  52 W9        30.41R
MADISON        FAIR      42  24  49 NW7       30.39S
6HR MIN TEMP:  26; 6HR MAX TEMP:  42;

MIDDLETON      FAIR      44  27  52 NW6       30.40S
WATERTOWN      FAIR      39  23  52 NW12      30.38R WCI  32
MONROE         FAIR      43  23  45 N5        30.39S
JANESVILLE     MOSUNNY   45  28  53 NW10      30.38S
$$

WIZ051-052-058>065-066-070>072-191900-
SOUTHEAST WISCONSIN

CITY           SKY/WX    TMP DP  RH WIND       PRES   REMARKS
MILWAUKEE      FAIR      45  24  43 NW7       30.35R
6HR MIN TEMP:  33; 6HR MAX TEMP:  46;

WAUKESHA       SUNNY     39  23  52 NW10      30.37R WCI  32
MILWAUKEE/TIMM SUNNY     43  21  42 N7        30.36R
RACINE         FAIR      44  25  47 N7        30.36S
6HR MIN TEMP:  32; 6HR MAX TEMP:  44;

BURLINGTON     FAIR      41  26  54 W9        30.37R
KENOSHA        FAIR      43  27  53 W12       30.36R
6HR MIN TEMP:  31; 6HR MAX TEMP:  44;

FOND DU LAC    FAIR      43  17  35 NW5       30.37R
6HR MIN TEMP:  25; 6HR MAX TEMP:  44;

SHEBOYGAN      FAIR      43  22  43 NW8       30.35R
6HR MIN TEMP:  30; 6HR MAX TEMP:  43;

WEST BEND      FAIR      41  21  45 NW12      30.35R
JUNEAU         FAIR      38  24  56 CALM      30.39R
$$

LSZ147-162-191900-
LAKE SUPERIOR

STATION/POSITION TIME  TEMP    WIND        PRES    WAVE
                       AIR SEA DIR/SP/G            HT/PER
                 (UTC) (F)     (DEG/KT/KT) (MB)    (FT/S)
DEVILS ISLAND    1700   39     220/  5/  8 1030.8F
SAXON HARBOR     1740   42      60/  3/  4 1029.8F
$$

LMZ867-665-643>646-191900-
LAKE MICHIGAN

STATION/POSITION TIME  TEMP    WIND        PRES    WAVE
                       AIR SEA DIR/SP/G            HT/PER
                 (UTC) (F)     (DEG/KT/KT) (MB)    (FT/S)
NORTHPORT PIER   1740   39                 1026.1S
KEWAUNEE LAKESHO 1730   45     340/  6/ 11 1026.1R
SHEBOYGAN LAKESH 1700   38     360/ 10/ 11 1027.7
PORT WASHINGTON  1730   46     310/  6/  8 1028.4R
MILWAUKEE LAKESH 1730   42     310/  7/  8   N/A
KENOSHA   LAKESH 1700   42                 1027.4
$$

TC  - TEMPERATURE IN CELSIUS
VSB - VISIBILITY IN STATUTE MILES
WCI - WIND CHILL INDEX
HX  - HEAT INDEX





USA.gov is the U.S. government's official web portal to all federal, state and local government web resources and services.